Time,TemperatureF,DewpointF,PressureIn,WindDirection,WindDirectionDegrees,WindSpeedMPH,WindSpeedGustMPH,Humidity,HourlyPrecipIn,Conditions,Clouds,dailyrainin,SolarRadiationWatts/m^2,SoftwareType,DateUTC
2013-08-23 00:24:00,53.0,52.0,-100.00,ESE,118,0.0,2.0,96,-99.99,,,-99.99,0.000000,,2013-08-23 04:24:00,
2013-08-23 00:34:00,53.0,52.0,-100.00,ESE,118,0.0,2.0,96,-99.99,,,-99.99,0.000000,,2013-08-23 04:34:00,
2013-08-23 00:43:00,53.0,52.0,-100.00,ESE,118,0.0,2.0,96,-99.99,,,-99.99,0.000000,,2013-08-23 04:43:00,
2013-08-23 00:54:00,53.0,52.0,-100.00,ESE,118,0.0,2.0,96,-99.99,,,-99.99,0.000000,,2013-08-23 04:54:00,
2013-08-23 01:22:00,53.0,52.0,-100.00,SE,142,1.0,2.0,97,-99.99,,,-99.99,0.000000,,2013-08-23 05:22:00,
2013-08-23 01:34:00,53.0,52.0,-100.00,SE,142,1.0,2.0,97,-99.99,,,-99.99,0.000000,,2013-08-23 05:34:00,
2013-08-23 01:42:00,53.0,52.0,-100.00,SE,142,1.0,2.0,97,-99.99,,,-99.99,0.000000,,2013-08-23 05:42:00,
2013-08-23 01:52:00,53.0,52.0,-100.00,SE,142,1.0,2.0,97,-99.99,,,-99.99,0.000000,,2013-08-23 05:52:00,
2013-08-23 02:22:00,52.0,51.0,-100.00,ESE,115,0.0,2.0,97,-99.99,,,-99.99,0.000000,,2013-08-23 06:22:00,
2013-08-23 02:32:00,52.0,51.0,-100.00,ESE,115,0.0,2.0,97,-99.99,,,-99.99,0.000000,,2013-08-23 06:32:00,
2013-08-23 02:42:00,52.0,51.0,-100.00,ESE,115,0.0,2.0,97,-99.99,,,-99.99,0.000000,,2013-08-23 06:42:00,
2013-08-23 02:52:00,52.0,51.0,-100.00,ESE,115,0.0,2.0,97,-99.99,,,-99.99,0.000000,,2013-08-23 06:52:00,
2013-08-23 03:22:00,52.0,51.0,-100.00,ESE,123,1.0,2.0,97,-99.99,,,-99.99,0.000000,,2013-08-23 07:22:00,
2013-08-23 03:32:00,52.0,51.0,-100.00,ESE,123,1.0,2.0,97,-99.99,,,-99.99,0.000000,,2013-08-23 07:32:00,
2013-08-23 03:42:00,52.0,51.0,-100.00,ESE,123,1.0,2.0,97,-99.99,,,-99.99,0.000000,,2013-08-23 07:42:00,
2013-08-23 03:52:00,52.0,51.0,-100.00,ESE,123,1.0,2.0,97,-99.99,,,-99.99,0.000000,,2013-08-23 07:52:00,
2013-08-23 04:22:00,51.0,50.0,-100.00,SE,125,1.0,2.0,97,-99.99,,,-99.99,0.000000,,2013-08-23 08:22:00,
2013-08-23 04:32:00,51.0,50.0,-100.00,SE,125,1.0,2.0,97,-99.99,,,-99.99,0.000000,,2013-08-23 08:32:00,
2013-08-23 04:42:00,51.0,50.0,-100.00,SE,125,1.0,2.0,97,-99.99,,,-99.99,0.000000,,2013-08-23 08:42:00,
2013-08-23 04:52:00,51.0,50.0,-100.00,SE,125,1.0,2.0,97,-99.99,,,-99.99,0.000000,,2013-08-23 08:52:00,
2013-08-23 05:21:00,52.0,51.0,-100.00,SE,129,1.0,2.0,97,-99.99,,,-99.99,0.000000,,2013-08-23 09:21:00,
2013-08-23 05:33:00,52.0,51.0,-100.00,SE,129,1.0,2.0,97,-99.99,,,-99.99,0.000000,,2013-08-23 09:33:00,
2013-08-23 05:43:00,52.0,51.0,-100.00,SE,129,1.0,2.0,97,-99.99,,,-99.99,0.000000,,2013-08-23 09:43:00,
2013-08-23 05:53:00,52.0,51.0,-100.00,SE,129,1.0,2.0,97,-99.99,,,-99.99,0.000000,,2013-08-23 09:53:00,
2013-08-23 06:23:00,51.0,50.0,-100.00,SE,128,1.0,2.0,97,-99.99,,,-99.99,0.000000,,2013-08-23 10:23:00,
2013-08-23 06:33:00,51.0,50.0,-100.00,SE,128,1.0,2.0,97,-99.99,,,-99.99,0.000000,,2013-08-23 10:33:00,
2013-08-23 06:42:00,51.0,50.0,-100.00,SE,128,1.0,2.0,97,-99.99,,,-99.99,0.000000,,2013-08-23 10:42:00,
2013-08-23 06:52:00,51.0,50.0,-100.00,SE,128,1.0,2.0,97,-99.99,,,-99.99,0.000000,,2013-08-23 10:52:00,
2013-08-23 07:22:00,51.0,50.0,-100.00,SE,131,1.0,2.0,97,-99.99,,,-99.99,0.000000,,2013-08-23 11:22:00,
2013-08-23 07:33:00,51.0,50.0,-100.00,SE,131,1.0,2.0,97,-99.99,,,-99.99,0.000000,,2013-08-23 11:33:00,
2013-08-23 07:42:00,51.0,50.0,-100.00,SE,131,1.0,2.0,97,-99.99,,,-99.99,0.000000,,2013-08-23 11:42:00,
2013-08-23 07:53:00,51.0,50.0,-100.00,SE,131,1.0,2.0,97,-99.99,,,-99.99,0.000000,,2013-08-23 11:53:00,
2013-08-23 08:22:00,51.0,50.0,-100.00,SE,133,1.0,2.0,97,-99.99,,,-99.99,11.000000,,2013-08-23 12:22:00,
2013-08-23 08:32:00,51.0,50.0,-100.00,SE,133,1.0,2.0,97,-99.99,,,-99.99,11.000000,,2013-08-23 12:32:00,
2013-08-23 08:42:00,51.0,50.0,-100.00,SE,133,1.0,2.0,97,-99.99,,,-99.99,11.000000,,2013-08-23 12:42:00,
2013-08-23 08:52:00,51.0,50.0,-100.00,SE,133,1.0,2.0,97,-99.99,,,-99.99,11.000000,,2013-08-23 12:52:00,
2013-08-23 09:22:00,56.0,55.0,-100.00,East,86,0.0,3.0,97,-99.99,,,-99.99,28.000000,,2013-08-23 13:22:00,
2013-08-23 09:32:00,56.0,55.0,-100.00,East,86,0.0,3.0,97,-99.99,,,-99.99,28.000000,,2013-08-23 13:32:00,
2013-08-23 09:42:00,56.0,55.0,-100.00,East,86,0.0,3.0,97,-99.99,,,-99.99,28.000000,,2013-08-23 13:42:00,
2013-08-23 09:52:00,56.0,55.0,-100.00,East,86,0.0,3.0,97,-99.99,,,-99.99,28.000000,,2013-08-23 13:52:00,
2013-08-23 10:22:00,64.0,59.0,-100.00,WNW,303,1.0,2.0,83,-99.99,,,-99.99,247.000000,,2013-08-23 14:22:00,
2013-08-23 10:32:00,64.0,59.0,-100.00,WNW,303,1.0,2.0,83,-99.99,,,-99.99,247.000000,,2013-08-23 14:32:00,
2013-08-23 10:42:00,64.0,59.0,-100.00,WNW,303,1.0,2.0,83,-99.99,,,-99.99,247.000000,,2013-08-23 14:42:00,
2013-08-23 10:52:00,64.0,59.0,-100.00,WNW,303,1.0,2.0,83,-99.99,,,-99.99,247.000000,,2013-08-23 14:52:00,
2013-08-23 11:22:00,67.0,57.0,-100.00,WNW,285,2.0,3.0,71,-99.99,,,-99.99,459.000000,,2013-08-23 15:22:00,
2013-08-23 11:33:00,67.0,57.0,-100.00,WNW,285,2.0,3.0,71,-99.99,,,-99.99,459.000000,,2013-08-23 15:33:00,
2013-08-23 11:44:00,67.0,57.0,-100.00,WNW,285,2.0,3.0,71,-99.99,,,-99.99,459.000000,,2013-08-23 15:44:00,
2013-08-23 11:54:00,67.0,57.0,-100.00,WNW,285,2.0,3.0,71,-99.99,,,-99.99,459.000000,,2013-08-23 15:54:00,
2013-08-23 12:24:00,71.0,59.0,-100.00,NW,314,2.0,4.0,65,-99.99,,,-99.99,571.000000,,2013-08-23 16:24:00,
2013-08-23 12:34:00,71.0,59.0,-100.00,NW,314,2.0,4.0,65,-99.99,,,-99.99,571.000000,,2013-08-23 16:34:00,
2013-08-23 12:42:00,71.0,59.0,-100.00,NW,314,2.0,4.0,65,-99.99,,,-99.99,571.000000,,2013-08-23 16:42:00,
2013-08-23 12:53:00,71.0,59.0,-100.00,NW,314,2.0,4.0,65,-99.99,,,-99.99,571.000000,,2013-08-23 16:53:00,
2013-08-23 13:24:00,73.0,59.0,-100.00,NNW,347,2.0,5.0,62,-99.99,,,-99.99,622.000000,,2013-08-23 17:24:00,
2013-08-23 13:34:00,73.0,59.0,-100.00,NNW,347,2.0,5.0,62,-99.99,,,-99.99,622.000000,,2013-08-23 17:34:00,
2013-08-23 13:43:00,73.0,59.0,-100.00,NNW,347,2.0,5.0,62,-99.99,,,-99.99,622.000000,,2013-08-23 17:43:00,
2013-08-23 13:53:00,73.0,59.0,-100.00,NNW,347,2.0,5.0,62,-99.99,,,-99.99,622.000000,,2013-08-23 17:53:00,
2013-08-23 14:22:00,73.0,59.0,-100.00,North,354,3.0,5.0,61,-99.99,,,-99.99,724.000000,,2013-08-23 18:22:00,
2013-08-23 14:32:00,73.0,59.0,-100.00,North,354,3.0,5.0,61,-99.99,,,-99.99,724.000000,,2013-08-23 18:32:00,
2013-08-23 14:42:00,73.0,59.0,-100.00,North,354,3.0,5.0,61,-99.99,,,-99.99,724.000000,,2013-08-23 18:42:00,
2013-08-23 14:52:00,73.0,59.0,-100.00,North,354,3.0,5.0,61,-99.99,,,-99.99,724.000000,,2013-08-23 18:52:00,
2013-08-23 15:22:00,74.0,59.0,-100.00,NW,310,2.0,7.0,59,-99.99,,,-99.99,701.000000,,2013-08-23 19:22:00,
2013-08-23 15:32:00,74.0,59.0,-100.00,NW,310,2.0,7.0,59,-99.99,,,-99.99,701.000000,,2013-08-23 19:32:00,
2013-08-23 15:42:00,74.0,59.0,-100.00,NW,310,2.0,7.0,59,-99.99,,,-99.99,701.000000,,2013-08-23 19:42:00,
2013-08-23 15:52:00,74.0,59.0,-100.00,NW,310,2.0,7.0,59,-99.99,,,-99.99,701.000000,,2013-08-23 19:52:00,
2013-08-23 16:22:00,73.0,59.0,-100.00,NNW,346,3.0,8.0,62,-99.99,,,-99.99,528.000000,,2013-08-23 20:22:00,
2013-08-23 16:32:00,73.0,59.0,-100.00,NNW,346,3.0,8.0,62,-99.99,,,-99.99,528.000000,,2013-08-23 20:32:00,
2013-08-23 16:42:00,73.0,59.0,-100.00,NNW,346,3.0,8.0,62,-99.99,,,-99.99,528.000000,,2013-08-23 20:42:00,
2013-08-23 16:52:00,73.0,59.0,-100.00,NNW,346,3.0,8.0,62,-99.99,,,-99.99,528.000000,,2013-08-23 20:52:00,
2013-08-23 17:22:00,73.0,58.0,-100.00,NNW,343,3.0,8.0,60,-99.99,,,-99.99,569.000000,,2013-08-23 21:22:00,
2013-08-23 17:34:00,73.0,58.0,-100.00,NNW,343,3.0,8.0,60,-99.99,,,-99.99,569.000000,,2013-08-23 21:34:00,
2013-08-23 17:44:00,73.0,58.0,-100.00,NNW,343,3.0,8.0,60,-99.99,,,-99.99,569.000000,,2013-08-23 21:44:00,
2013-08-23 17:54:00,73.0,58.0,-100.00,NNW,343,3.0,8.0,60,-99.99,,,-99.99,569.000000,,2013-08-23 21:54:00,
2013-08-23 18:24:00,71.0,59.0,-100.00,North,356,3.0,6.0,67,-99.99,,,-99.99,390.000000,,2013-08-23 22:24:00,
2013-08-23 18:33:00,71.0,59.0,-100.00,North,356,3.0,6.0,67,-99.99,,,-99.99,390.000000,,2013-08-23 22:33:00,
2013-08-23 18:43:00,71.0,59.0,-100.00,North,356,3.0,6.0,67,-99.99,,,-99.99,390.000000,,2013-08-23 22:43:00,
2013-08-23 18:53:00,71.0,59.0,-100.00,North,356,3.0,6.0,67,-99.99,,,-99.99,390.000000,,2013-08-23 22:53:00,
2013-08-23 19:22:00,69.0,60.0,-100.00,NNW,330,0.0,4.0,73,-99.99,,,-99.99,136.000000,,2013-08-23 23:22:00,
2013-08-23 19:33:00,69.0,60.0,-100.00,NNW,330,0.0,4.0,73,-99.99,,,-99.99,136.000000,,2013-08-23 23:33:00,
2013-08-23 19:43:00,69.0,60.0,-100.00,NNW,330,0.0,4.0,73,-99.99,,,-99.99,136.000000,,2013-08-23 23:43:00,
2013-08-23 19:54:00,69.0,60.0,-100.00,NNW,330,0.0,4.0,73,-99.99,,,-99.99,136.000000,,2013-08-23 23:54:00,
2013-08-23 20:22:00,69.0,56.0,-100.00,SSE,147,3.0,7.0,64,-99.99,,,-99.99,64.000000,,2013-08-24 00:22:00,
2013-08-23 20:32:00,69.0,56.0,-100.00,SSE,147,3.0,7.0,64,-99.99,,,-99.99,64.000000,,2013-08-24 00:32:00,
2013-08-23 20:43:00,69.0,56.0,-100.00,SSE,147,3.0,7.0,64,-99.99,,,-99.99,64.000000,,2013-08-24 00:43:00,
2013-08-23 20:53:00,69.0,56.0,-100.00,SSE,147,3.0,7.0,64,-99.99,,,-99.99,64.000000,,2013-08-24 00:53:00,
2013-08-23 21:22:00,64.0,55.0,-100.00,SE,145,2.0,6.0,72,-99.99,,,-99.99,9.000000,,2013-08-24 01:22:00,
2013-08-23 21:32:00,64.0,55.0,-100.00,SE,145,2.0,6.0,72,-99.99,,,-99.99,9.000000,,2013-08-24 01:32:00,
2013-08-23 21:42:00,64.0,55.0,-100.00,SE,145,2.0,6.0,72,-99.99,,,-99.99,9.000000,,2013-08-24 01:42:00,
2013-08-23 21:53:00,64.0,55.0,-100.00,SE,145,2.0,6.0,72,-99.99,,,-99.99,9.000000,,2013-08-24 01:53:00,
2013-08-23 22:22:00,63.0,53.0,-100.00,SSE,151,3.0,7.0,71,-99.99,,,-99.99,0.000000,,2013-08-24 02:22:00,
2013-08-23 22:32:00,63.0,53.0,-100.00,SSE,151,3.0,7.0,71,-99.99,,,-99.99,0.000000,,2013-08-24 02:32:00,
2013-08-23 22:42:00,63.0,53.0,-100.00,SSE,151,3.0,7.0,71,-99.99,,,-99.99,0.000000,,2013-08-24 02:42:00,
2013-08-23 22:52:00,63.0,53.0,-100.00,SSE,151,3.0,7.0,71,-99.99,,,-99.99,0.000000,,2013-08-24 02:52:00,
2013-08-23 23:22:00,61.0,54.0,-100.00,SSE,147,3.0,8.0,77,-99.99,,,-99.99,0.000000,,2013-08-24 03:22:00,
2013-08-23 23:34:00,61.0,54.0,-100.00,SSE,147,3.0,8.0,77,-99.99,,,-99.99,0.000000,,2013-08-24 03:34:00,
2013-08-23 23:44:00,61.0,54.0,-100.00,SSE,147,3.0,8.0,77,-99.99,,,-99.99,0.000000,,2013-08-24 03:44:00,
2013-08-23 23:54:00,61.0,54.0,-100.00,SSE,147,3.0,8.0,77,-99.99,,,-99.99,0.000000,,2013-08-24 03:54:00,